KC9DRE Weather Reports


time (UTC)temp
C
wind
direction
speed
KPH
gust
KPH
rain 1hr
cm
rain 24hr
cm
rain mn
cm
humidity
%
barometer
mb
20260905191035 36 265 1.6 3.2 0.00 0.00 0.00 48 1013.4
20260905190534 37 247 1.6 3.2 0.00 0.00 0.00 46 1013.6
20260905190033 36 264 0.0 3.2 0.00 0.00 0.00 50 1013.5
20260905185533 35 262 1.6 6.4 0.00 0.00 0.00 49 1013.7
20260905185027 36 355 3.2 6.4 0.00 0.00 0.00 48 1013.7
20260905184526 36 281 1.6 4.8 0.00 0.00 0.00 46 1013.7
20260905184025 37 271 1.6 1.6 0.00 0.00 0.00 48 1013.7
20260905183526 36 260 1.6 1.6 0.00 0.00 0.00 46 1013.8
20260905183021 36 268 1.6 3.2 0.00 0.00 0.00 46 1013.7
20260905182521 36 264 0.0 3.2 0.00 0.00 0.00 47 1013.9
20260905182021 36 242 1.6 1.6 0.00 0.00 0.00 45 1014.1
20260905181516 36 259 3.2 4.8 0.00 0.00 0.00 47 1014.1
20260905181015 36 263 0.0 1.6 0.00 0.00 0.00 47 1014.1
20260905180510 35 262 1.6 3.2 0.00 0.00 0.00 51 1014.0
20260905180005 35 265 0.0 3.2 0.00 0.00 0.00 50 1014.2
20260905175504 35 275 3.2 3.2 0.00 0.00 0.00 48 1014.1
20260905175000 35 283 1.6 4.8 0.00 0.00 0.00 48 1014.3
20260905174455 35 282 3.2 3.2 0.00 0.00 0.00 48 1014.5
20260905173951 35 288 3.2 3.2 0.00 0.00 0.00 47 1014.5
20260905173447 35 236 0.0 3.2 0.00 0.00 0.00 50 1014.4
20260905172942 35 262 3.2 4.8 0.00 0.00 0.00 51 1014.5
20260905172440 33 257 0.0 3.2 0.00 0.00 0.00 52 1014.4
20260905171936 34 100 1.6 6.4 0.00 0.00 0.00 49 1014.4
20260905171433 35 343 0.0 3.2 0.00 0.00 0.00 53 1014.5
20260905170929 34 279 1.6 3.2 0.00 0.00 0.00 49 1014.3
20260905170424 33 210 1.6 3.2 0.00 0.00 0.00 52 1014.6
20260905165924 34 118 3.2 3.2 0.00 0.00 0.00 48 1014.7
20260905165419 33 282 3.2 4.8 0.00 0.00 0.00 48 1014.9
20260905164914 33 293 1.6 3.2 0.00 0.00 0.00 48 1014.9
20260905164408 33 265 1.6 3.2 0.00 0.00 0.00 47 1015.0
20260905163903 34 320 1.6 3.2 0.00 0.00 0.00 47 1014.8
20260905163400 33 271 0.0 3.2 0.00 0.00 0.00 50 1014.9
20260905162856 32 256 3.2 6.4 0.00 0.00 0.00 52 1015.1
20260905162355 32 43 3.2 3.2 0.00 0.00 0.00 52 1015.2
20260905161850 32 358 0.0 3.2 0.00 0.00 0.00 50 1015.3
20260905161350 32 235 1.6 3.2 0.00 0.00 0.00 52 1015.3
20260905160848 33 10 1.6 6.4 0.00 0.00 0.00 48 1015.3
20260905160343 32 122 0.0 4.8 0.00 0.00 0.00 49 1015.2
20260905155837 32 287 4.8 6.4 0.00 0.00 0.00 51 1015.3
20260905155337 32 273 3.2 4.8 0.00 0.00 0.00 51 1015.2
20260905154836 31 185 4.8 4.8 0.00 0.00 0.00 51 1015.2
20260905154332 31 306 3.2 3.2 0.00 0.00 0.00 55 1015.2
20260905153827 31 17 1.6 3.2 0.00 0.00 0.00 54 1015.3
20260905153324 31 307 3.2 4.8 0.00 0.00 0.00 54 1015.4
20260905152823 31 350 1.6 3.2 0.00 0.00 0.00 54 1015.4
20260905152322 31 268 3.2 3.2 0.00 0.00 0.00 56 1015.5
20260905151818 31 52 1.6 3.2 0.00 0.00 0.00 56 1015.5
20260905151313 30 351 0.0 1.6 0.00 0.00 0.00 57 1015.7
20260905150813 30 272 0.0 3.2 0.00 0.00 0.00 57 1015.7
20260905150313 30 143 3.2 9.7 0.00 0.00 0.00 57 1015.7
20260905145811 30 5 3.2 9.7 0.00 0.00 0.00 57 1015.7
20260905145310 30 244 1.6 6.4 0.00 0.00 0.00 61 1015.5
20260905144809 30 270 0.0 4.8 0.00 0.00 0.00 61 1015.6
20260905144305 29 10 1.6 3.2 0.00 0.00 0.00 62 1015.7
20260905143804 28 79 4.8 11.3 0.00 0.00 0.00 61 1015.7
20260905143258 28 49 8.0 11.3 0.00 0.00 0.00 61 1015.8
20260905142757 28 171 4.8 11.3 0.00 0.00 0.00 64 1015.9
20260905142251 28 289 3.2 11.3 0.00 0.00 0.00 66 1015.8
20260905141748 28 114 9.7 12.9 0.00 0.00 0.00 66 1015.6
20260905141244 27 266 3.2 6.4 0.00 0.00 0.00 69 1015.9
20260905140739 27 96 1.6 11.3 0.00 0.00 0.00 70 1016.1
20260905140239 27 57 4.8 6.4 0.00 0.00 0.00 70 1016.1
20260905135737 27 165 4.8 9.7 0.00 0.00 0.00 71 1016.2
20260905135234 27 127 3.2 12.9 0.00 0.00 0.00 72 1015.9
20260905134733 27 196 3.2 4.8 0.00 0.00 0.00 71 1016.1
20260905134233 26 57 4.8 11.3 0.00 0.00 0.00 73 1016.2
20260905133728 26 100 3.2 16.1 0.00 0.00 0.00 74 1015.9
20260905133223 26 157 1.6 9.7 0.00 0.00 0.00 74 1016.2
20260905132722 26 103 1.6 11.3 0.00 0.00 0.00 75 1016.3
20260905132218 26 48 3.2 14.5 0.00 0.00 0.00 76 1016.7
20260905131712 26 65 3.2 16.1 0.00 0.00 0.00 78 1016.5
20260905131208 26 81 6.4 12.9 0.00 0.00 0.00 79 1016.5
20260905130702 25 61 4.8 11.3 0.00 0.00 0.00 82 1016.5
20260905130201 25 357 3.2 14.5 0.00 0.00 0.00 82 1016.5
20260905125655 25 128 4.8 12.9 0.00 0.00 0.00 84 1016.8
20260905125151 25 245 1.6 11.3 0.00 0.00 0.00 86 1016.4
20260905124648 25 322 1.6 6.4 0.00 0.00 0.00 92 1016.8
20260905124144 25 311 0.0 1.6 0.00 0.00 0.00 91 1015.7
20260905123638 25 264 0.0 0.0 0.00 0.00 0.00 90 1015.6
20260905123136 25 264 0.0 0.0 0.00 0.00 0.00 92 1015.6
20260905122635 25 261 0.0 0.0 0.00 0.00 0.00 94 1015.6
20260905122130 25 270 0.0 0.0 0.00 0.00 0.00 97 1015.4
20260905121625 23 260 0.0 0.0 0.00 0.00 0.00 98 1015.4
20260905121120 23 278 0.0 0.0 0.00 0.00 0.00 98 1015.0
20260905120619 22 316 0.0 1.6 0.00 0.00 0.00 98 1015.3
20260905120114 22 258 0.0 0.0 0.00 0.00 0.00 98 1015.2
20260905115613 22 267 0.0 1.6 0.00 0.00 0.00 98 1015.2
20260905115108 22 343 1.6 3.2 0.00 0.00 0.00 98 1015.2
20260905114608 21 264 0.0 0.0 0.00 0.00 0.00 98 1015.1
20260905114107 21 264 0.0 0.0 0.00 0.00 0.00 98 1015.0
20260905113602 21 264 0.0 0.0 0.00 0.00 0.00 98 1014.9
20260905113057 21 264 0.0 0.0 0.00 0.00 0.00 98 1014.9
20260905112552 21 264 0.0 0.0 0.00 0.00 0.00 98 1014.9
20260905112048 21 264 0.0 0.0 0.00 0.00 0.00 98 1014.7
20260905111543 21 264 0.0 0.0 0.00 0.00 0.00 98 1014.6
20260905111042 21 264 0.0 0.0 0.00 0.00 0.00 97 1014.4
20260905110541 21 264 0.0 0.0 0.00 0.00 0.00 97 1014.6
20260905110036 21 264 0.0 0.0 0.00 0.00 0.00 97 1014.4
20260905105536 21 264 0.0 0.0 0.00 0.00 0.00 97 1014.3
20260905105036 21 264 0.0 0.0 0.00 0.00 0.00 97 1014.3
20260905104532 21 264 0.0 0.0 0.00 0.00 0.00 97 1014.0
20260905104031 21 264 0.0 0.0 0.00 0.00 0.00 97 1014.0
20260905103527 21 264 0.0 0.0 0.00 0.00 0.00 97 1014.1
20260905103023 21 264 0.0 0.0 0.00 0.00 0.00 97 1014.2
20260905102518 21 264 0.0 0.0 0.00 0.00 0.00 97 1014.3
20260905102015 21 264 0.0 0.0 0.00 0.00 0.00 97 1014.1
20260905101513 22 264 0.0 0.0 0.00 0.00 0.00 97 1014.2
20260905101011 22 263 0.0 0.0 0.00 0.00 0.00 97 1014.2
20260905100508 22 264 0.0 0.0 0.00 0.00 0.00 96 1014.3
20260905100007 22 263 0.0 0.0 0.00 0.00 0.00 96 1014.2
20260905095502 22 263 0.0 0.0 0.00 0.00 0.00 96 1014.3
20260905094957 22 264 0.0 0.0 0.00 0.00 0.00 96 1014.1
20260905094452 22 263 0.0 0.0 0.00 0.00 0.00 96 1014.2
20260905093951 22 263 0.0 0.0 0.00 0.00 0.00 96 1014.2
20260905093446 22 263 0.0 0.0 0.00 0.00 0.00 96 1014.1
20260905092942 22 264 0.0 0.0 0.00 0.00 0.00 95 1014.0
20260905092437 22 263 0.0 0.0 0.00 0.00 0.00 95 1013.9
20260905091933 22 263 0.0 0.0 0.00 0.00 0.00 95 1013.9
20260905091433 22 267 0.0 0.0 0.00 0.00 0.00 94 1013.9
20260905090932 22 267 0.0 0.0 0.00 0.00 0.00 94 1013.7
20260905090428 22 267 0.0 0.0 0.00 0.00 0.00 94 1013.7
20260905085927 23 267 0.0 0.0 0.00 0.00 0.00 94 1013.7
20260905085426 23 267 0.0 0.0 0.00 0.00 0.00 94 1013.5
20260905084922 23 267 0.0 0.0 0.00 0.00 0.00 94 1013.5
20260905084421 23 263 0.0 0.0 0.00 0.00 0.00 93 1013.6
20260905083916 23 263 0.0 0.0 0.00 0.00 0.00 93 1013.7
20260905083412 23 263 0.0 0.0 0.00 0.00 0.00 92 1013.9
20260905082908 24 263 0.0 0.0 0.00 0.00 0.00 92 1013.7
20260905082404 24 270 0.0 0.0 0.00 0.00 0.00 91 1013.8
20260905081859 25 271 0.0 0.0 0.00 0.00 0.00 89 1013.9
20260905081359 25 256 0.0 0.0 0.00 0.00 0.00 88 1013.8
20260905080857 25 273 0.0 0.0 0.00 0.00 0.00 87 1014.0
20260905080352 24 276 0.0 1.6 0.00 0.00 0.00 90 1013.8
20260905075852 23 273 0.0 6.4 0.00 0.00 0.00 94 1014.1
20260905075351 23 240 1.6 3.2 0.00 0.00 0.00 97 1014.0
20260905074850 23 271 0.0 0.0 0.00 0.00 0.00 98 1014.2
20260905074346 23 260 0.0 1.6 0.00 0.00 0.00 98 1014.2
20260905073841 23 263 0.0 1.6 0.00 0.00 0.00 98 1014.1
20260905073337 23 270 0.0 0.0 0.00 0.00 0.00 98 1014.1
20260905072831 22 259 1.6 3.2 0.00 0.00 0.00 98 1014.2
20260905072326 22 266 0.0 0.0 0.00 0.00 0.00 98 1013.7
20260905071824 22 266 0.0 0.0 0.00 0.00 0.00 98 1014.0
20260905071320 22 266 0.0 0.0 0.00 0.00 0.00 98 1013.8
20260905070819 22 266 0.0 0.0 0.00 0.00 0.00 98 1014.1
20260905070316 22 266 0.0 0.0 0.00 0.00 0.00 98 1014.0
20260905065815 22 266 0.0 0.0 0.00 0.00 0.00 98 1014.1
20260905065313 22 266 0.0 0.0 0.00 0.00 0.00 98 1014.1
20260905064809 22 266 0.0 0.0 0.00 0.00 0.00 98 1014.0
20260905064304 22 266 0.0 0.0 0.00 0.00 0.00 98 1014.2
20260905063803 22 266 0.0 0.0 0.00 0.00 0.00 98 1014.0
20260905063259 22 266 0.0 0.0 0.00 0.00 0.00 98 1014.3
20260905062755 22 266 0.0 0.0 0.00 0.00 0.00 98 1014.3
20260905062255 22 266 0.0 0.0 0.00 0.00 0.00 98 1014.5
20260905061750 22 266 0.0 0.0 0.00 0.00 0.00 98 1014.4
20260905061250 22 266 0.0 0.0 0.00 0.00 0.00 98 1014.6
20260905060744 22 266 0.0 0.0 0.00 0.00 0.00 98 1014.6
20260905060241 22 266 0.0 0.0 0.00 0.00 0.00 98 1014.6
20260905055739 22 266 0.0 0.0 0.00 0.00 0.00 97 1014.6
20260905055235 22 266 0.0 0.0 0.00 0.00 0.00 97 1014.6
20260905054730 22 266 0.0 0.0 0.00 0.00 0.00 97 1014.7
20260905054226 22 266 0.0 0.0 0.00 0.00 0.00 97 1014.7
20260905053725 22 266 0.0 0.0 0.00 0.00 0.00 97 1014.9
20260905053221 22 266 0.0 0.0 0.00 0.00 0.00 97 1014.7
20260905052720 22 266 0.0 0.0 0.00 0.00 0.00 97 1014.6
20260905052215 22 266 0.0 0.0 0.00 0.00 0.00 97 1014.9
20260905051715 22 266 0.0 0.0 0.00 0.00 0.00 97 1014.8
20260905051212 22 266 0.0 0.0 0.00 0.00 0.00 97 1014.8
20260905050708 22 266 0.0 0.0 0.00 0.00 0.00 97 1014.7
20260905050205 22 266 0.0 0.0 0.00 0.00 0.00 97 1014.9
20260905045704 22 266 0.0 0.0 0.00 0.00 0.00 97 1014.7
20260905045159 22 266 0.0 0.0 0.00 0.00 0.00 97 1014.7
20260905044655 22 266 0.0 0.0 0.00 0.00 0.00 97 1014.7
20260905044149 22 266 0.0 0.0 0.00 0.00 0.00 97 1014.7
20260905043648 22 266 0.0 0.0 0.00 0.00 0.00 97 1015.1
20260905043143 22 266 0.0 0.0 0.00 0.00 0.00 97 1014.8
20260905042643 22 266 0.0 0.0 0.00 0.00 0.00 97 1014.9
20260905042137 22 265 0.0 0.0 0.00 0.00 0.00 97 1014.8
20260905041633 22 265 0.0 0.0 0.00 0.00 0.00 96 1014.9
20260905041128 22 265 0.0 0.0 0.00 0.00 0.00 97 1014.8
20260905040629 22 265 0.0 0.0 0.00 0.00 0.00 97 1014.9
20260905040127 22 265 0.0 0.0 0.00 0.00 0.00 96 1014.9
20260905035622 22 265 0.0 0.0 0.00 0.00 0.00 96 1015.1
20260905035119 23 265 0.0 0.0 0.00 0.00 0.00 96 1015.0
20260905034615 23 265 0.0 0.0 0.00 0.00 0.00 96 1015.1
20260905034114 23 265 0.0 0.0 0.00 0.00 0.00 96 1014.8
20260905033614 23 265 0.0 0.0 0.00 0.00 0.00 96 1015.0
20260905033110 23 265 0.0 0.0 0.00 0.00 0.00 96 1014.8
20260905032609 23 265 0.0 0.0 0.00 0.00 0.00 96 1015.0
20260905032109 23 265 0.0 0.0 0.00 0.00 0.00 96 1015.1
20260905031605 23 265 0.0 0.0 0.00 0.00 0.00 96 1014.9
20260905031105 23 265 0.0 0.0 0.00 0.00 0.00 96 1015.1
20260905030600 23 265 0.0 0.0 0.00 0.00 0.00 96 1015.2
20260905030055 23 265 0.0 0.0 0.00 0.00 0.00 96 1015.0
20260905025550 23 265 0.0 0.0 0.00 0.00 0.00 96 1015.3
20260905025047 23 265 0.0 0.0 0.00 0.00 0.00 95 1015.3
20260905024542 23 265 0.0 0.0 0.00 0.00 0.00 95 1015.3
20260905024037 23 265 0.0 0.0 0.00 0.00 0.00 95 1015.2
20260905023532 23 265 0.0 0.0 0.00 0.00 0.00 95 1015.1
20260905023027 23 265 0.0 0.0 0.00 0.00 0.00 95 1015.1
20260905022526 23 265 0.0 0.0 0.00 0.00 0.00 95 1014.9
20260905022021 23 265 0.0 0.0 0.00 0.00 0.00 95 1015.0
20260905021521 23 265 0.0 0.0 0.00 0.00 0.00 94 1015.2
20260905021016 23 265 0.0 0.0 0.00 0.00 0.00 94 1015.0
20260905020516 23 265 0.0 0.0 0.00 0.00 0.00 94 1015.1
20260905020012 23 265 0.0 0.0 0.00 0.00 0.00 94 1014.9
20260905015509 23 265 0.0 0.0 0.00 0.00 0.00 94 1014.8
20260905015009 24 265 0.0 0.0 0.00 0.00 0.00 93 1014.9
20260905014504 24 265 0.0 0.0 0.00 0.00 0.00 93 1014.9
20260905013959 24 265 0.0 0.0 0.00 0.00 0.00 93 1014.8
20260905013456 24 265 0.0 0.0 0.00 0.00 0.00 93 1014.9
20260905012951 24 265 0.0 0.0 0.00 0.00 0.00 93 1014.7
20260905012446 25 265 0.0 0.0 0.00 0.00 0.00 93 1014.7
20260905011942 25 265 0.0 0.0 0.00 0.00 0.00 92 1014.6
20260905011438 25 265 0.0 0.0 0.00 0.00 0.00 92 1014.5
20260905010933 25 265 0.0 0.0 0.00 0.00 0.00 91 1014.6
20260905010428 25 265 0.0 0.0 0.00 0.00 0.00 91 1014.4
20260905005924 25 265 0.0 0.0 0.00 0.00 0.00 91 1014.7
20260905005420 25 265 0.0 0.0 0.00 0.00 0.00 90 1014.4
20260905004915 25 265 0.0 0.0 0.00 0.00 0.00 89 1014.7
20260905004415 25 265 0.0 0.0 0.00 0.00 0.00 88 1014.3
20260905003910 26 265 0.0 0.0 0.00 0.00 0.00 87 1014.4
20260905003406 26 265 0.0 0.0 0.00 0.00 0.00 87 1014.4
20260905002902 26 265 0.0 0.0 0.00 0.00 0.00 85 1014.4
20260905002401 26 265 0.0 0.0 0.00 0.00 0.00 84 1014.1
20260905001856 27 265 0.0 0.0 0.00 0.00 0.00 83 1014.2
20260905001350 27 265 0.0 0.0 0.00 0.00 0.00 82 1014.2
20260905000845 27 265 0.0 0.0 0.00 0.00 0.00 81 1014.2
20260905000341 28 265 0.0 0.0 0.00 0.00 0.00 79 1014.3
20260904235836 28 265 0.0 0.0 0.00 0.00 0.00 79 1014.1
20260904235331 28 265 0.0 0.0 0.00 0.00 0.00 77 1014.2
20260904234826 29 265 0.0 0.0 0.00 0.00 0.00 76 1014.2
20260904234320 29 265 0.0 0.0 0.00 0.00 0.00 75 1014.3
20260904233816 30 265 0.0 0.0 0.00 0.00 0.00 74 1014.3
20260904233312 30 265 0.0 0.0 0.00 0.00 0.00 72 1014.4
20260904232808 30 266 0.0 0.0 0.00 0.00 0.00 72 1014.3
20260904232306 30 265 0.0 0.0 0.00 0.00 0.00 70 1014.4
20260904231800 31 265 0.0 0.0 0.00 0.00 0.00 70 1014.0
20260904231255 31 265 0.0 0.0 0.00 0.00 0.00 70 1014.3
20260904230751 31 266 0.0 0.0 0.00 0.00 0.00 69 1014.3
20260904230250 31 266 0.0 0.0 0.00 0.00 0.00 67 1014.5
20260904225750 32 269 0.0 1.6 0.00 0.00 0.00 65 1014.2
20260904225243 33 266 0.0 0.0 0.00 0.00 0.00 63 1014.5
20260904224742 35 268 0.0 0.0 0.00 0.00 0.00 60 1014.4
20260904224238 35 267 0.0 0.0 0.00 0.00 0.00 59 1014.5
20260904223737 35 263 0.0 1.6 0.00 0.00 0.00 57 1014.4
20260904223232 36 271 0.0 0.0 0.00 0.00 0.00 56 1014.4
20260904222728 36 265 0.0 0.0 0.00 0.00 0.00 56 1014.6
20260904222224 36 264 0.0 0.0 0.00 0.00 0.00 55 1014.6
20260904221723 36 305 1.6 3.2 0.00 0.00 0.00 47 1014.6
20260904221219 37 249 0.0 1.6 0.00 0.00 0.00 51 1014.7
20260904220718 37 259 1.6 1.6 0.00 0.00 0.00 50 1014.5
20260904220214 37 268 0.0 0.0 0.00 0.00 0.00 49 1014.6
20260904215713 37 253 0.0 1.6 0.00 0.00 0.00 50 1014.6
20260904215209 37 271 0.0 3.2 0.00 0.00 0.00 47 1014.5
20260904214704 37 275 1.6 3.2 0.00 0.00 0.00 47 1014.8
20260904214200 37 303 0.0 1.6 0.00 0.00 0.00 48 1014.6
20260904213657 37 285 1.6 1.6 0.00 0.00 0.00 47 1014.6
20260904213154 37 265 0.0 3.2 0.00 0.00 0.00 48 1014.9
20260904212649 37 252 0.0 1.6 0.00 0.00 0.00 47 1014.7
20260904212144 38 273 3.2 4.8 0.00 0.00 0.00 48 1014.8
20260904211643 37 267 0.0 1.6 0.00 0.00 0.00 45 1014.6
20260904211139 37 266 0.0 1.6 0.00 0.00 0.00 48 1014.7
20260904210639 37 241 1.6 3.2 0.00 0.00 0.00 47 1014.9
20260904210134 37 309 1.6 4.8 0.00 0.00 0.00 45 1014.8
20260904205630 37 275 0.0 1.6 0.00 0.00 0.00 48 1014.8
20260904205126 37 264 0.0 3.2 0.00 0.00 0.00 48 1015.0
20260904204622 37 259 0.0 4.8 0.00 0.00 0.00 46 1014.7
20260904204119 37 262 1.6 1.6 0.00 0.00 0.00 44 1014.8
20260904203614 37 273 1.6 4.8 0.00 0.00 0.00 46 1015.1
20260904203110 37 257 1.6 3.2 0.00 0.00 0.00 45 1015.1
20260904202606 37 329 3.2 4.8 0.00 0.00 0.00 47 1015.1
20260904202102 37 348 3.2 3.2 0.00 0.00 0.00 48 1015.2
20260904201602 36 257 0.0 3.2 0.00 0.00 0.00 52 1015.1
20260904201057 36 277 0.0 4.8 0.00 0.00 0.00 52 1015.4
20260904200555 35 299 3.2 4.8 0.00 0.00 0.00 50 1015.6
20260904200051 35 276 0.0 1.6 0.00 0.00 0.00 52 1015.5
20260904195550 35 261 0.0 1.6 0.00 0.00 0.00 52 1015.5
20260904195049 36 276 0.0 0.0 0.00 0.00 0.00 51 1015.7
20260904194544 36 275 0.0 3.2 0.00 0.00 0.00 51 1015.7
20260904194039 36 343 1.6 4.8 0.00 0.00 0.00 50 1015.5
20260904193533 36 263 3.2 6.4 0.00 0.00 0.00 47 1015.9
20260904193030 36 323 1.6 3.2 0.00 0.00 0.00 49 1015.7
20260904192529 37 334 3.2 6.4 0.00 0.00 0.00 47 1015.9
20260904192026 37 273 0.0 3.2 0.00 0.00 0.00 45 1016.2
20260904191522 37 263 0.0 3.2 0.00 0.00 0.00 50 1016.1